Phoenix Deer Valley, AZ

4:23 AM MST on July 21, 2019 (GMT -0700)
Phoenix-Deer Valley Municipal

Weather History for KDVT - May, 2019

Change the Weather History Date:

Friday, May 24, 2019

  Actual Average Record
Temperature  
Mean Temperature 70 °F -  
Max Temperature 82 °F 94 °F 107 °F (2001)
Min Temperature 57 °F 68 °F 55 °F (2008)
Cooling Degree Days 4    
Growing Degree Days 20 (Base 50)    
Moisture  
Dew Point 30 °F    
Average Humidity 25    
Maximum Humidity 47    
Minimum Humidity 11    
Precipitation  
Precipitation 0.00 in - - ()
Sea Level Pressure  
Sea Level Pressure 29.84 in    
Wind  
Wind Speed 5 mph (NNW)    
Max Wind Speed 12 mph    
Max Gust Speed -    
Visibility 10 miles    
Events      
Averages and records for this station are not official NWS values.
T = Trace of Precipitation, MM = Missing Value Source: NWS Daily Summary

Daily Weather History Graph

Daily Weather History Graph

Search for Another Location

Airport or City:

Astronomy

May. 24, 2019 Rise Set
Actual Time 5:22 AM MST 7:28 PM MST
Civil Twilight 4:54 AM MST 7:56 PM MST
Nautical Twilight 4:19 AM MST 8:31 PM MST
Astronomical Twilight 3:43 AM MST 9:07 PM MST
Moon No Moon Rise 10:25 AM MST (5/24)
Length of Visible Light 15h 02m
Length of Day
14h 06m
Waning Gibbous, 68% of the Moon is Illuminated
May 24
Waning Gibbous
May 26
Last Quarter
Jun 3
New
Jun 9
First Quarter
Jun 17
Full

Hourly Weather History & Observations

Time (MST) Temp. Dew Point Humidity Pressure Visibility Wind Dir Wind Speed Gust Speed Precip Events Conditions
12:53 AM 61.0 °F 37.0 °F 41% 29.90 in 10.0 mi North 5.8 mph - N/A   Clear
1:53 AM 59.0 °F 37.0 °F 44% 29.88 in 10.0 mi NNE 6.9 mph - N/A   Clear
2:53 AM 59.0 °F 37.0 °F 44% 29.88 in 10.0 mi North 5.8 mph - N/A   Clear
3:53 AM 57.0 °F 37.0 °F 47% 29.88 in 10.0 mi Calm Calm - N/A   Clear
4:53 AM 57.9 °F 36.0 °F 44% 29.88 in 10.0 mi Calm Calm - N/A   Clear
5:53 AM 57.0 °F 36.0 °F 45% 29.90 in 10.0 mi Calm Calm - N/A   Clear
6:53 AM 62.1 °F 36.0 °F 38% 29.91 in 10.0 mi NE 4.6 mph - N/A   Clear
7:53 AM 68.0 °F 36.0 °F 31% 29.91 in 10.0 mi Calm Calm - N/A   Clear
8:53 AM 72.0 °F 36.0 °F 27% 29.91 in 10.0 mi Calm Calm - N/A   Clear
9:53 AM 73.9 °F 35.1 °F 24% 29.91 in 10.0 mi North - - N/A   Clear
10:53 AM 77.0 °F 32.0 °F 19% 29.89 in 10.0 mi SE 3.5 mph - N/A   Clear
11:53 AM 78.1 °F 28.9 °F 17% 29.88 in 10.0 mi Variable 3.5 mph - N/A   Clear
12:53 PM 80.1 °F 30.0 °F 16% 29.85 in 10.0 mi WSW 9.2 mph - N/A   Clear
1:53 PM 82.0 °F 24.1 °F 12% 29.83 in 10.0 mi West 9.2 mph - N/A   Clear
2:53 PM 82.0 °F 24.1 °F 12% 29.81 in 10.0 mi Variable 6.9 mph - N/A   Clear
3:53 PM 82.9 °F 23.0 °F 11% 29.79 in 10.0 mi SW 9.2 mph - N/A   Clear
4:53 PM 82.9 °F 25.0 °F 12% 29.78 in 10.0 mi SW 9.2 mph - N/A   Clear
5:53 PM 82.0 °F 23.0 °F 11% 29.77 in 10.0 mi WNW 5.8 mph - N/A   Clear
6:53 PM 81.0 °F 23.0 °F 12% 29.76 in 10.0 mi NNW 5.8 mph - N/A   Clear
7:53 PM 78.1 °F 24.1 °F 14% 29.76 in 10.0 mi WNW 4.6 mph - N/A   Clear
8:53 PM 75.0 °F 25.0 °F 16% 29.76 in 10.0 mi North 4.6 mph - N/A   Clear
9:53 PM 72.0 °F 23.0 °F 16% 29.77 in 10.0 mi NNE 9.2 mph - N/A   Clear
10:53 PM 70.0 °F 23.0 °F 17% 29.77 in 10.0 mi NNE 10.4 mph - N/A   Clear
11:53 PM 69.1 °F 24.1 °F 18% 29.76 in 10.0 mi NNE 11.5 mph - N/A   Clear